Flag for Belgium Weather past 2 weeks in Charleroi, Belgium

Now
39 °F

Passing clouds.


Feels Like: 34 °F
Forecast: 37 / 52 °F
Wind: 7 mph from West

Location: Charleroi / Gosselies

Current Time: Mar 27, 2015 at 3:02:22 AM

Latest Report: Mar 27, 2015 at 1:50 AM


Visibility: N/A

Pressure: 29.92 "Hg

Humidity: 81%

Dew point: 34 °F

Location of CharleroiLocation

Historic Weather in Charleroi — Graph

°F

Charleroi temperature yesterday

Maximum temperature yesterday: 43 °F (at 12:50 PM)
Minimum temperature yesterday: 34 °F (at 2:50 AM)
Average temperature yesterday: 39 °F

Past Weeks' High & Low Weather Summary

 TemperatureHumidityPressure
High63 °F (Mar 17, 3:20 PM)100% (Mar 16, 6:50 AM)30.42 "Hg (Mar 16, 6:50 AM)
Low30 °F (Mar 23, 4:50 AM)28% (Mar 12, 1:50 PM)29.68 "Hg (Mar 25, 4:20 AM)
Average42 °F79%30.13 "Hg
* Reported Mar 12 1:20 AM — Mar 27 1:50 AM, Charleroi, Weather by CustomWeather, © 2015

Note: Actual official high and low records may vary slightly from our data, if they occured in-between our weather recording intervals... More about our weather records

Advertising

Charleroi weather history for previous 24 hours

 ConditionsComfort  
Time TempWeatherWind HumidityBarometerVisibility
1:50 AM
Fri, Mar 27
39 °FPassing clouds.7 mph81%29.92 "HgN/A
1:20 AM39 °FPassing clouds.7 mph81%29.92 "HgN/A
12:50 AM39 °FClear.9 mph87%29.89 "Hg10 mi
12:20 AM41 °FClear.9 mph87%29.89 "Hg10 mi
11:50 PM
Thu, Mar 26
41 °FClear.7 mph87%29.86 "Hg10 mi
11:20 PM41 °FClear.9 mph87%29.86 "Hg10 mi
10:50 PM41 °FClear.9 mph93%29.83 "Hg10 mi
9:50 PM43 °FPassing clouds.8 mph87%29.83 "HgN/A
9:20 PM43 °FPassing clouds.8 mph93%29.80 "Hg5 mi
8:50 PM43 °FPassing clouds.8 mph93%29.80 "Hg5 mi
8:20 PM43 °FPassing clouds.8 mph93%29.77 "Hg6 mi
7:50 PM43 °FSprinkles. Passing clouds.9 mph93%29.77 "Hg6 mi
7:20 PM43 °FSprinkles. Passing clouds.12 mph93%29.74 "Hg4 mi
6:50 PM41 °FPartly sunny.14 mph93%29.74 "Hg4 mi
6:20 PM41 °FDrizzle. Partly sunny.14 mph93%29.71 "Hg2 mi
5:50 PM41 °FDrizzle. Partly sunny.15 mph93%29.71 "Hg2 mi
5:20 PM41 °FDrizzle. Partly sunny.18 mph93%29.71 "Hg2 mi
4:50 PM41 °FDrizzle. Partly sunny.20 mph87%29.71 "Hg3 mi
4:20 PM41 °FLight rain. Partly sunny.17 mph87%29.71 "Hg4 mi
3:50 PM41 °FLight rain. Partly sunny.21 mph87%29.68 "Hg4 mi
3:20 PM41 °FLight rain. Partly sunny.20 mph87%29.68 "Hg4 mi
2:50 PM41 °FLight rain. Partly sunny.15 mph81%29.71 "Hg4 mi
2:20 PM41 °FLight rain. Partly sunny.21 mph81%29.71 "Hg5 mi
1:50 PM43 °FLight rain. Scattered clouds.16 mph76%29.71 "Hg6 mi
1:20 PM41 °FLight rain. Scattered clouds.17 mph76%29.71 "Hg6 mi
12:50 PM43 °FLight rain. Scattered clouds.16 mph71%29.74 "HgN/A
12:20 PM41 °FLight rain. Passing clouds.15 mph76%29.74 "HgN/A
11:50 AM41 °FLight rain. Passing clouds.15 mph76%29.74 "HgN/A
11:20 AM41 °FPassing clouds.15 mph76%29.77 "HgN/A
10:50 AM41 °FPassing clouds.15 mph76%29.77 "HgN/A
10:20 AM39 °FPassing clouds.13 mph81%29.77 "HgN/A
9:50 AM39 °FPassing clouds.10 mph81%29.77 "HgN/A
9:20 AM37 °FScattered clouds.12 mph87%29.80 "Hg5 mi
8:50 AM36 °FPartly sunny.10 mph93%29.80 "Hg4 mi
8:20 AM36 °FFog.9 mph93%29.80 "Hg2 mi
7:50 AM36 °FFog.9 mph93%29.80 "Hg1 mi
7:20 AM34 °FFog.10 mph100%29.83 "Hg1 mi
6:50 AM34 °FFog.8 mph100%29.83 "Hg0 mi
6:20 AM34 °FFog.8 mph100%29.83 "Hg0 mi
5:50 AM34 °FFog.7 mph100%29.83 "Hg0 mi
5:20 AM34 °FFog.6 mph100%29.83 "Hg0 mi
4:50 AM34 °FFog.8 mph100%29.83 "Hg0 mi
4:20 AM34 °FFog.8 mph93%29.83 "Hg0 mi
3:50 AM34 °FFog.7 mph93%29.83 "Hg0 mi
3:20 AM34 °FFog.6 mph93%29.83 "Hg2 mi
Weather by CustomWeather, © 2015

See weather overviewHow to use our weather pages